Flag for Italy Weather past 2 weeks in Palermo, Italy

Now
68 °F

Passing clouds.


Feels Like: 68 °F
Forecast: 55 / 75 °F
Wind: 20 mph from Southwest

Location: Palermo / Punta Raisi


UV Index: 5 (Moderate)

Visibility: N/A


Pressure: 29.83 "Hg

Humidity: 56%

Dew point: 52 °F

Location of PalermoLocation

Historic Weather in Palermo

°F

Palermo temperature yesterday

Maximum temperature yesterday: 61 °F (at 10:50 AM)
Minimum temperature yesterday: 50 °F (at 1:20 AM)
Average temperature yesterday: 58 °F

Past Weeks' High & Low Weather Summary

 TemperatureHumidityPressure
High68 °F (Apr 9, 9:50 AM)100% (Apr 6, 8:50 PM)30.21 "Hg (Apr 6, 8:50 PM)
Low48 °F (Apr 17, 3:50 AM)44% (Apr 11, 6:20 AM)29.62 "Hg (Apr 5, 7:50 AM)
Average59 °F77%29.98 "Hg
* Reported Apr 4 3:20 PM — Apr 19 1:50 PM, Palermo, Weather by CustomWeather, © 2014

Note: Actual official high and low records may vary slightly from our data, if they occured in-between our weather recording intervals... More about our weather records

Advertising

Historic Weather Conditions — Data for Previous 24 hours

 ConditionsComfort  
Time TempWeatherWind HumidityBarometerVisibility
1:50 PM
Apr 19
68 °FPassing clouds.22 mph53%29.83 "HgN/A
1:20 PM68 °FPassing clouds.22 mph49%29.83 "HgN/A
12:50 PM68 °FPassing clouds.22 mph53%29.83 "HgN/A
12:20 PM64 °FPassing clouds.22 mph64%29.83 "HgN/A
11:50 AM64 °FPassing clouds.20 mph60%29.83 "HgN/A
11:20 AM63 °FPassing clouds.22 mph64%29.83 "HgN/A
10:50 AM61 °FPassing clouds.24 mph68%29.83 "HgN/A
9:50 AM61 °FPassing clouds.24 mph63%29.86 "HgN/A
9:20 AM59 °FPassing clouds.22 mph72%29.83 "HgN/A
8:50 AM59 °FPassing clouds.21 mph72%29.83 "HgN/A
8:20 AM59 °FPassing clouds.20 mph68%29.83 "HgN/A
7:50 AM59 °FPassing clouds.20 mph68%29.83 "HgN/A
7:20 AM57 °FPassing clouds.20 mph67%29.80 "HgN/A
6:50 AM55 °FClear.14 mph72%29.80 "Hg10 mi
5:20 AM57 °FClear.16 mph63%29.80 "Hg10 mi
4:50 AM57 °FClear.14 mph63%29.80 "Hg10 mi
4:20 AM55 °FClear.14 mph59%29.83 "Hg10 mi
3:50 AM55 °FClear.14 mph55%29.83 "Hg10 mi
3:20 AM55 °FClear.14 mph55%29.83 "Hg10 mi
2:50 AM55 °FClear.13 mph63%29.83 "Hg10 mi
2:20 AM55 °FClear.14 mph67%29.83 "Hg10 mi
1:50 AM55 °FClear.13 mph72%29.86 "Hg10 mi
1:20 AM55 °FClear.10 mph72%29.86 "Hg10 mi
12:50 AM55 °FClear.10 mph72%29.86 "Hg10 mi
12:20 AM55 °FClear.10 mph72%29.86 "Hg10 mi
11:50 PM
Apr 18
55 °FPassing clouds.9 mph77%29.86 "HgN/A
10:50 PM59 °FPassing clouds.13 mph72%29.86 "HgN/A
10:20 PM59 °FPassing clouds.10 mph72%29.86 "HgN/A
9:50 PM59 °FPassing clouds.6 mph68%29.86 "HgN/A
9:20 PM59 °FPassing clouds.8 mph63%29.86 "HgN/A
8:50 PM59 °FPassing clouds.9 mph63%29.86 "HgN/A
8:20 PM59 °FPassing clouds.9 mph63%29.83 "HgN/A
7:50 PM59 °FPassing clouds.10 mph63%29.83 "HgN/A
7:20 PM59 °FPassing clouds.8 mph63%29.83 "HgN/A
6:50 PM59 °FPassing clouds.8 mph59%29.86 "HgN/A
6:20 PM59 °FPassing clouds.8 mph63%29.83 "HgN/A
5:50 PM61 °FPassing clouds.7 mph59%29.86 "HgN/A
5:20 PM59 °FPassing clouds.10 mph63%29.86 "HgN/A
4:50 PM59 °FPassing clouds.10 mph59%29.86 "HgN/A
4:20 PM59 °FPassing clouds.13 mph55%29.86 "HgN/A
3:50 PM61 °FPassing clouds.9 mph59%29.86 "HgN/A
3:20 PM59 °FPassing clouds.9 mph59%29.89 "HgN/A
2:50 PM59 °FPassing clouds.3 mph59%29.86 "HgN/A
2:20 PM59 °FPassing clouds.5 mph59%29.89 "HgN/A
Weather by CustomWeather, © 2014

See weather overview